Satellite: RS-30
Catalog number: 32953
Epoch time:      12082.84554339
Element set:     631
Inclination:      082.5066 deg
RA of node:       348.8334 deg
Eccentricity:    0.0019079
Arg of perigee:   132.8867 deg
Mean anomaly:     227.3815 deg
Mean motion:   12.43021627 rev/day
Decay rate:        1.0e-07 rev/day^2
Epoch rev:           17383
Checksum:              300

Satellite: TACSAT-3
Catalog number: 35001
Epoch time:      12082.89401907
Element set:     915
Inclination:      040.4455 deg
RA of node:       245.1458 deg
Eccentricity:    0.0011313
Arg of perigee:   348.4796 deg
Mean anomaly:     011.5773 deg
Mean motion:   15.83899414 rev/day
Decay rate:    1.79600e-03 rev/day^2
Epoch rev:           16078
Checksum:              307

Satellite: PHARMSAT
Catalog number: 35002
Epoch time:      12081.89083550
Element set:     834
Inclination:      040.4678 deg
RA of node:       259.5643 deg
Eccentricity:    0.0002188
Arg of perigee:   223.2570 deg
Mean anomaly:     136.8086 deg
Mean motion:   15.69112560 rev/day
Decay rate:     5.7514e-04 rev/day^2
Epoch rev:           16054
Checksum:              291

Satellite: METEOR-M
Catalog number: 35865
Epoch time:      12082.80506071
Element set:     256
Inclination:      098.6651 deg
RA of node:       138.7106 deg
Eccentricity:    0.0001906
Arg of perigee:   320.6272 deg
Mean anomaly:     039.4759 deg
Mean motion:   14.21857785 rev/day
Decay rate:       -1.6e-07 rev/day^2
Epoch rev:           13032
Checksum:              292

Satellite: RS-38
Catalog number: 35869
Epoch time:      12082.76836354
Element set:     262
Inclination:      098.6611 deg
RA of node:       138.6839 deg
Eccentricity:    0.0003946
Arg of perigee:   310.4042 deg
Mean anomaly:     049.6789 deg
Mean motion:   14.22059674 rev/day
Decay rate:        1.4e-07 rev/day^2
Epoch rev:           13033
Checksum:              321

Satellite: JUGNU
Catalog number: 37839
Epoch time:      12081.61538222
Element set:    0114
Inclination:      019.9623 deg
RA of node:       168.7496 deg
Eccentricity:    0.0019132
Arg of perigee:   340.3184 deg
Mean anomaly:     019.6451 deg
Mean motion:   14.12035842 rev/day
Decay rate:       6.19e-06 rev/day^2
Epoch rev:           02285
Checksum:              285

Satellite: SRMSAT
Catalog number: 37841
Epoch time:      12082.47077233
Element set:     114
Inclination:      019.9713 deg
RA of node:       166.7487 deg
Eccentricity:    0.0012138
Arg of perigee:   315.4575 deg
Mean anomaly:     044.4880 deg
Mean motion:   14.10123160 rev/day
Decay rate:       2.64e-06 rev/day^2
Epoch rev:            2293
Checksum:              273

Satellite: RAX-2
Catalog number: 37853
Epoch time:      12082.90056841
Element set:     129
Inclination:      101.7160 deg
RA of node:       083.8479 deg
Eccentricity:    0.0249855
Arg of perigee:   236.7023 deg
Mean anomaly:     121.0021 deg
Mean motion:   14.79226587 rev/day
Decay rate:      2.807e-05 rev/day^2
Epoch rev:            2163
Checksum:              293

Satellite: AUBIESAT
Catalog number: 37854
Epoch time:      12082.87587537
Element set:     131
Inclination:      101.7183 deg
RA of node:       083.9524 deg
Eccentricity:    0.0251150
Arg of perigee:   236.1093 deg
Mean anomaly:     121.5987 deg
Mean motion:   14.79548207 rev/day
Decay rate:      2.128e-05 rev/day^2
Epoch rev:            2162
Checksum:              297

Satellite: HRBE
Catalog number: 37855
Epoch time:      12082.88215979
Element set:     130
Inclination:      101.7214 deg
RA of node:       083.9438 deg
Eccentricity:    0.0251158
Arg of perigee:   236.2332 deg
Mean anomaly:     121.4713 deg
Mean motion:   14.79438014 rev/day
Decay rate:      2.086e-05 rev/day^2
Epoch rev:            2162
Checksum:              283

Satellite: RS-39
Catalog number: 38051
Epoch time:      12082.74655919
Element set:     175
Inclination:      051.6428 deg
RA of node:       211.3027 deg
Eccentricity:    0.0011246
Arg of perigee:   086.3144 deg
Mean anomaly:     049.9205 deg
Mean motion:   15.22851233 rev/day
Decay rate:      6.494e-05 rev/day^2
Epoch rev:             879
Checksum:              300

Satellite: E-STAR
Catalog number: 38079
Epoch time:      12082.60139100
Element set:      93
Inclination:      069.4913 deg
RA of node:       152.6985 deg
Eccentricity:    0.0772013
Arg of perigee:   356.6352 deg
Mean anomaly:     002.9719 deg
Mean motion:   14.08258324 rev/day
Decay rate:     3.4898e-04 rev/day^2
Epoch rev:             536
Checksum:              309

Satellite: GOLIAT
Catalog number: 38085
Epoch time:      12082.54192043
Element set:      91
Inclination:      069.4897 deg
RA of node:       152.8734 deg
Eccentricity:    0.0771617
Arg of perigee:   356.7172 deg
Mean anomaly:     002.9021 deg
Mean motion:   14.07697944 rev/day
Decay rate:     3.1303e-04 rev/day^2
Epoch rev:             535
Checksum:              303

/EX
_______________________________________________
Via the Keps mailing list courtesy of AMSAT-NA
http://amsat.org/mailman/listinfo/keps

--- ViaMAIL!/WC v1.60d
 * Origin: Chowdanet (401-724-4410) telnet://chowdanet.com  (1:323/120)